User: anonymous   Login
Location: Stull Observatory
(42.2506°N, 77.7903°W)
Time: 03:23:46
(UTC-05:00)
Language:

Abrixas rocket - Orbit

View from above orbital plane
View from above orbital plane
View from above satellite
View from above satellite

Ground track
Ground track

The orbit data is extracted from the following two-line orbital elements,

1 25723U 99022C   18021.51681719  .00005964  00000-0  85179-4 0  9999
2 25723  48.4154  80.3323 0009530   0.4161 359.6792 15.57624221 40498
Epoch (UTC): 21 January 2018 12:24:13
Eccentricity: 0.0009530
inclination: 48.4154°
perigee height: 388 km
apogee height: 401 km
right ascension of ascending node: 80.3323°
argument of perigee: 0.4161°
revolutions per day: 15.57624221
mean anomaly at epoch: 359.6792°
orbit number at epoch: 4049

The dashed part of the orbit path shows where the satellite is in the earth's shadow,  

DLR